Location: Newark
(49.9828°N, 3.1606°E)
Time: 07:18:49
(UTC+00:00)

Envisat - Pass Details

Date: 30 January 2020
Orbit: 764 x 766 km, 98.1° (Epoch: 20 February)

Event Time Altitude Azimuth Distance (km) Brightness Sun altitude
Rises 06:23:52 0° 16° (NNE) 3,245 6.3 -9.9°
Reaches altitude 10° 06:26:13 10° 19° (NNE) 2,314 5.5 -9.5°
Maximum altitude 06:31:17 65° 102° (ESE) 840 3.5 -8.7°
Drops below altitude 10° 06:36:19 10° 184° (S) 2,296 5.7 -8.0°
Sets 06:38:38 0° 187° (S) 3,218 6.4 -7.6°
